Location: Spring Creek
(38.2870°N, 100.2160°W)
Time: 23:39:39
(UTC+00:00)

BREEZE-M DEB (TANK) - Pass Details

Date: 08 May 2021
Orbit: 327 x 12033 km, 49.6° (Epoch: 21 June)

Event Time Altitude Azimuth Distance (km) Brightness Sun altitude
Exits shadow 08:19:18 47° 102° (ESE) 1,109 3.6 -29.6°
Drops below altitude 10° 08:27:18 10° 57° (ENE) 4,428 7.4 -28.8°
Sets 08:33:47 0° 54° (NE) 7,037 8.7 -28.2°
